Stations météo

réclame
Mon MeteoGroup
Vinga, Suède (2516): Température de l'air & dewpoint: 10.06.2019 03:00:00 - 16.06.2019 03:00:00 (CEST)Vinga, Suède (2516): Vitesse du vent & gusts: 10.06.2019 03:00:00 - 16.06.2019 03:00:00 (CEST)Vinga, Suède (2516): Direction du vent: 10.06.2019 03:00:00 - 16.06.2019 03:00:00 (CEST)Vinga, Suède (2516): reduced air pressure: 10.06.2019 03:00:00 - 16.06.2019 03:00:00 (CEST)Vinga, Suède (2516): visibility: 10.06.2019 03:00:00 - 16.06.2019 03:00:00 (CEST)Vinga, Suède (2516): Quantités de précipitations: 10.06.2019 03:00:00 - 16.06.2019 03:00:00 (CEST)
Date & Time tt [°C] td [°C] ff [km/h] ff [knt] fx [km/h] fx [knt] dd ppp [hPa] vv [km] rr [mm]
16.06.2019 03:00:00 - - - - - - - - - -
16.06.2019 02:00:00 18,1 11,2 19 10 28 15 SE 1013,0 50 0,0
16.06.2019 01:00:00 18,3 11,6 20 11 29 16 SE 1013,2 50 0,0
16.06.2019 00:00:00 18,6 11,4 18 10 23 13 ESE 1013,0 50 0,0
15.06.2019 23:00:00 18,8 11,8 16 9 24 13 E 1013,0 50 0,0
15.06.2019 22:00:00 18,6 13,7 14 7 21 11 ENE 1012,7 50 0,0
15.06.2019 21:00:00 17,3 14,6 10 6 16 9 ENE 1013,2 44 0,0
15.06.2019 20:00:00 17,5 14,2 12 7 23 12 SSE 1013,9 23 0,0
15.06.2019 19:00:00 17,5 13,4 20 11 41 22 S 1013,9 23 0,0
15.06.2019 18:00:00 18,2 12,4 33 18 38 20 S 1013,6 30 0,0
15.06.2019 17:00:00 18,6 13,9 22 12 38 20 S 1014,3 35 0,0
15.06.2019 16:00:00 20,1 13,3 29 15 38 21 S 1014,4 46 0,0
15.06.2019 15:00:00 20,1 14,5 15 8 20 11 S 1014,5 46 0,0
15.06.2019 14:00:00 22,9 13,4 12 7 23 12 SE 1014,6 46 0,0
15.06.2019 13:00:00 22,8 13,8 19 11 25 14 ESE 1014,9 44 0,0
15.06.2019 12:00:00 21,6 14,3 16 9 22 12 ESE 1014,9 49 0,0
15.06.2019 11:00:00 21,9 13,0 18 10 27 15 E 1015,6 38 0,0
15.06.2019 10:00:00 19,1 13,3 16 9 26 14 E 1016,0 44 0,0
15.06.2019 09:00:00 18,5 13,1 18 10 26 14 ENE 1016,1 45 0,0
15.06.2019 08:00:00 16,6 12,4 18 10 27 15 ENE 1016,6 50 0,0
15.06.2019 07:00:00 16,3 12,5 17 9 24 13 ENE 1017,0 46 0,0
15.06.2019 06:00:00 15,2 12,7 14 8 21 11 ENE 1017,5 50 0,0
15.06.2019 05:00:00 15,3 12,8 15 8 22 12 ENE 1017,9 50 0,0
15.06.2019 04:00:00 15,2 13,0 13 7 19 10 ENE 1018,0 48 0,0
15.06.2019 03:00:00 15,3 13,3 12 7 18 10 ENE 1018,4 50 0,0
15.06.2019 02:00:00 15,4 13,4 10 6 16 8 ENE 1018,7 50 0,0
15.06.2019 01:00:00 15,6 13,6 10 5 14 8 E 1019,1 50 0,0
15.06.2019 00:00:00 15,8 14,2 10 6 16 9 E 1019,1 40 0,0
14.06.2019 23:00:00 15,3 13,5 8 4 11 6 ENE 1018,8 41 0,0
14.06.2019 22:00:00 15,6 13,8 7 4 19 11 NE 1018,5 24 0,9
14.06.2019 21:00:00 16,1 13,4 28 15 39 21 S 1019,8 5 0,7
14.06.2019 20:00:00 17,7 13,6 3 2 11 6 W 1018,7 50 0,0
14.06.2019 19:00:00 18,1 13,8 9 5 16 9 SSE 1018,7 41 0,0
14.06.2019 18:00:00 17,4 14,3 10 5 19 10 SSE 1018,5 40 0,0
14.06.2019 17:00:00 17,8 14,7 12 6 22 12 SSE 1018,7 37 0,0
14.06.2019 16:00:00 17,5 14,4 19 11 23 13 S 1019,0 23 0,0
14.06.2019 15:00:00 17,5 14,2 22 12 28 15 S 1019,0 29 0,0
14.06.2019 14:00:00 17,7 14,0 22 12 29 15 SSE 1019,0 33 0,0
14.06.2019 13:00:00 17,4 14,1 23 13 32 18 SSE 1018,9 28 0,0
14.06.2019 12:00:00 16,8 13,9 29 16 36 19 S 1018,7 22 0,0
14.06.2019 11:00:00 16,7 14,0 31 17 36 19 S 1018,3 28 0,0
14.06.2019 10:00:00 16,6 13,9 27 15 37 20 SSE 1017,9 23 0,0
14.06.2019 09:00:00 16,2 13,7 26 14 37 20 SSE 1017,1 24 0,0
14.06.2019 08:00:00 16,1 13,6 30 16 40 21 SSE 1016,6 31 0,0
14.06.2019 07:00:00 15,6 12,7 23 12 29 16 SE 1016,5 50 0,0
14.06.2019 06:00:00 15,6 12,9 21 12 28 15 SE 1016,2 44 0,0
14.06.2019 05:00:00 15,7 12,6 21 11 27 15 SE 1016,1 50 0,0
14.06.2019 04:00:00 16,1 12,5 19 10 25 14 SE 1016,0 50 0,0
14.06.2019 03:00:00 15,8 12,9 14 7 18 10 ESE 1015,9 50 0,0
14.06.2019 02:00:00 15,9 13,6 14 7 18 10 ESE 1015,8 49 0,0
14.06.2019 01:00:00 15,8 13,8 9 5 23 13 SSE 1015,4 48 0,0
14.06.2019 00:00:00 16,3 13,4 21 11 32 17 S 1015,5 50 0,0
13.06.2019 23:00:00 16,8 12,7 19 11 25 13 SSE 1015,5 50 0,0
13.06.2019 22:00:00 17,1 12,2 17 9 24 13 SSE 1014,9 50 0,0
13.06.2019 21:00:00 17,6 11,4 21 11 26 14 SSE 1014,5 49 0,0
13.06.2019 20:00:00 17,3 12,2 16 9 21 11 SSE 1014,2 40 0,0
13.06.2019 19:00:00 17,2 12,7 12 7 21 11 SE 1014,1 33 0,0
13.06.2019 18:00:00 16,9 13,4 16 9 29 15 SSE 1013,9 17 0,0
13.06.2019 17:00:00 16,9 13,6 21 11 27 15 SSE 1013,5 25 0,0
13.06.2019 16:00:00 16,4 13,1 23 13 28 15 SSE 1013,4 24 0,0
13.06.2019 15:00:00 16,3 12,8 23 12 30 16 S 1013,3 21 0,0
13.06.2019 14:00:00 16,1 12,3 24 13 34 19 S 1013,0 26 0,0
13.06.2019 13:00:00 16,2 12,2 29 16 35 19 S 1012,7 25 0,0
13.06.2019 12:00:00 15,6 12,2 25 14 32 18 SSW 1011,9 23 0,0
13.06.2019 11:00:00 16,1 12,5 24 13 39 21 SW 1011,0 18 0,0
13.06.2019 10:00:00 15,0 12,5 31 17 42 23 SSW 1010,4 14 0,0
13.06.2019 09:00:00 15,1 13,5 37 20 45 25 SSW 1009,6 11 0,0
13.06.2019 08:00:00 15,3 15,0 33 18 41 22 S 1008,8 5 0,0
13.06.2019 07:00:00 15,1 14,8 29 15 37 20 S 1008,5 0,4 0,0
13.06.2019 06:00:00 14,9 14,6 31 17 37 20 S 1008,3 3,3 0,0
13.06.2019 05:00:00 15,1 14,6 25 14 31 17 SE 1007,7 1,8 0,0
13.06.2019 04:00:00 14,9 14,1 14 8 24 13 SE 1007,5 13 0,0
13.06.2019 03:00:00 14,3 13,7 17 9 24 13 ENE 1007,1 13 0,5
13.06.2019 02:00:00 14,3 13,5 13 7 34 18 E 1008,2 6 1,5
13.06.2019 01:00:00 15,1 12,8 22 12 28 15 SE 1009,6 15 0,0
13.06.2019 00:00:00 14,8 11,9 16 9 32 18 E 1009,3 42 0,0
12.06.2019 23:00:00 14,9 11,9 21 11 37 20 E 1009,9 42 0,0
12.06.2019 22:00:00 15,2 12,1 24 13 37 20 E 1010,3 42 0,0
12.06.2019 21:00:00 15,1 12,8 26 14 41 22 ENE 1011,0 44 0,0
12.06.2019 20:00:00 14,1 12,3 31 17 49 26 NE 1011,1 46 0,0
12.06.2019 19:00:00 13,9 12,5 31 17 46 25 NE 1011,7 49 0,0
12.06.2019 18:00:00 14,5 12,7 37 20 52 28 NE 1012,2 50 0,0
12.06.2019 17:00:00 14,1 12,7 39 21 52 28 NE 1012,8 44 0,1
12.06.2019 16:00:00 14,2 12,8 35 19 45 25 NE 1013,7 23 0,2
12.06.2019 15:00:00 14,9 13,3 32 17 46 25 NE 1013,8 35 0,0
12.06.2019 14:00:00 13,6 12,7 35 19 44 24 NE 1014,0 40 1,8
12.06.2019 13:00:00 13,6 12,3 27 14 37 20 NE 1014,9 6 1,7
12.06.2019 12:00:00 14,1 11,3 25 13 37 20 NE 1015,2 28 0,0
12.06.2019 11:00:00 14,3 9,9 30 16 44 24 ENE 1015,1 41 0,1
12.06.2019 10:00:00 14,4 9,2 34 18 56 30 NE 1013,4 50 0,0
12.06.2019 09:00:00 14,6 9,0 38 21 53 29 ENE 1013,8 48 0,0
12.06.2019 08:00:00 14,4 8,6 26 14 46 25 E 1016,0 50 0,0
12.06.2019 07:00:00 14,1 8,5 34 19 46 25 ENE 1015,7 50 0,0
12.06.2019 06:00:00 14,1 8,5 31 17 55 30 ENE 1016,5 50 0,0
12.06.2019 05:00:00 14,2 9,4 36 20 49 26 ENE 1016,2 50 0,0
12.06.2019 04:00:00 14,5 10,3 30 16 46 25 ENE 1016,7 50 0,0
12.06.2019 03:00:00 15,1 10,7 31 17 43 23 ENE 1016,8 50 0,0
12.06.2019 02:00:00 15,2 10,2 29 15 46 25 ENE 1016,5 50 0,0
12.06.2019 01:00:00 16,2 9,1 27 15 46 25 E 1016,7 50 0,0
12.06.2019 00:00:00 16,7 9,9 33 18 54 29 E 1016,5 50 0,0
11.06.2019 23:00:00 17,1 11,6 32 17 54 29 E 1016,3 49 0,0
11.06.2019 22:00:00 17,3 12,4 32 17 47 25 E 1015,7 49 0,0
11.06.2019 21:00:00 17,0 12,3 24 13 37 20 E 1015,9 50 0,0
11.06.2019 20:00:00 17,0 12,3 26 14 46 25 E 1015,3 46 0,0
11.06.2019 19:00:00 17,0 12,3 29 16 46 25 E 1014,9 49 0,0
11.06.2019 18:00:00 16,6 12,6 31 17 48 26 ENE 1014,9 49 0,0
11.06.2019 17:00:00 16,7 12,6 36 19 52 28 ENE 1014,7 41 0,0
11.06.2019 16:00:00 17,2 12,9 38 21 61 33 ENE 1014,3 41 0,0
11.06.2019 15:00:00 17,0 12,9 37 20 54 29 ENE 1014,8 36 0,0
11.06.2019 14:00:00 16,4 13,1 36 20 50 27 NE 1014,8 40 0,0
11.06.2019 13:00:00 15,5 13,0 33 18 46 25 NE 1015,3 27 0,1
11.06.2019 12:00:00 15,9 12,1 29 15 45 24 ENE 1015,8 46 0,0
11.06.2019 11:00:00 16,6 11,5 22 12 34 19 E 1016,0 50 0,0
11.06.2019 10:00:00 16,5 11,0 22 12 35 19 ENE 1016,0 50 0,0
11.06.2019 09:00:00 16,0 10,7 21 11 34 18 NE 1016,1 50 0,0
11.06.2019 08:00:00 15,9 10,2 22 12 32 17 NE 1016,1 50 0,0
11.06.2019 07:00:00 14,7 9,7 21 11 31 17 ENE 1016,2 46 0,0
11.06.2019 06:00:00 14,8 9,4 21 11 33 18 NE 1016,4 50 0,0
11.06.2019 05:00:00 14,8 9,2 23 13 32 17 NE 1016,5 50 0,0
11.06.2019 04:00:00 15,0 9,4 17 9 33 18 NE 1017,6 50 0,0
11.06.2019 03:00:00 14,8 8,5 23 12 31 17 NE 1017,5 50 0,0
11.06.2019 02:00:00 14,7 8,2 20 11 31 17 NE 1017,9 50 0,0
11.06.2019 01:00:00 15,1 7,9 19 10 26 14 NE 1018,2 50 0,0
11.06.2019 00:00:00 14,9 7,4 18 10 25 14 NNE 1018,4 50 0,0
10.06.2019 23:00:00 15,1 7,1 16 9 24 13 NNE 1018,8 50 0,0
10.06.2019 22:00:00 15,1 8,3 20 11 29 16 N 1018,9 50 0,0
10.06.2019 21:00:00 15,2 8,7 21 12 29 16 N 1018,7 48 0,0
10.06.2019 20:00:00 15,3 7,6 19 11 31 17 N 1019,0 50 0,0
10.06.2019 19:00:00 15,1 8,3 19 10 28 15 N 1019,3 50 0,0
10.06.2019 18:00:00 15,3 7,3 16 8 26 14 N 1019,7 44 0,0
10.06.2019 17:00:00 15,8 8,3 16 9 22 12 NNW 1020,0 50 0,0
10.06.2019 16:00:00 15,6 8,8 11 6 18 10 NNW 1020,2 39 0,0
10.06.2019 15:00:00 15,9 9,1 9 5 16 8 NNW 1020,5 29 0,0
10.06.2019 14:00:00 15,1 9,0 8 4 13 7 NNW 1021,0 45 0,0
10.06.2019 13:00:00 15,0 10,2 8 4 13 7 NNW 1021,1 32 0,0
10.06.2019 12:00:00 15,0 10,0 8 4 12 7 NW 1021,2 34 0,0
10.06.2019 11:00:00 14,1 9,5 4 2 9 5 SSW 1021,5 31 0,0
10.06.2019 10:00:00 14,1 9,5 3 2 10 5 WNW 1021,5 26 0,0
10.06.2019 09:00:00 14,0 9,6 5 3 11 6 WNW 1021,5 33 0,0
10.06.2019 08:00:00 13,3 9,4 7 4 12 6 WSW 1021,6 34 0,0
10.06.2019 07:00:00 13,0 9,6 8 4 13 7 SW 1021,6 30 0,0
10.06.2019 06:00:00 12,8 9,6 10 5 13 7 WSW 1021,4 32 0,0
10.06.2019 05:00:00 12,5 9,5 9 5 19 11 W 1021,4 29 0,0
10.06.2019 04:00:00 12,8 9,4 15 8 19 10 WSW 1021,4 32 0,0
10.06.2019 03:00:00 13,1 9,7 14 8 19 10 WSW 1021,6 34 0,0

tt = Température de l'air
td = dewpoint
ff = Vitesse du vent
fx = gusts
dd = Direction du vent
ppp = reduced air pressure
vv = visibility
rr = Quantités de précipitations

stations d'obs. à proximité